St. George, UT

2:03 PM MST on January 23, 2018 (GMT -0700)
Saint George Municipal

Weather History for KSGU - January, 2013

Change the Weather History Date:

Sunday, January 13, 2013

  Actual Average Record
Temperature  
Mean Temperature 24 °F -  
Max Temperature 32 °F 54 °F 70 °F (1986)
Min Temperature 15 °F 29 °F 2 °F (1963)
Degree Days  
Heating Degree Days 42    
Moisture  
Dew Point 2 °F    
Average Humidity 42    
Maximum Humidity 63    
Minimum Humidity 23    
Precipitation  
Precipitation 0.00 in - - ()
Sea Level Pressure  
Sea Level Pressure 30.15 in    
Wind  
Wind Speed 5 mph (ESE)    
Max Wind Speed 20 mph    
Max Gust Speed 28 mph    
Visibility 10 miles    
Events      
Averages and records for this station are not official NWS values.
T = Trace of Precipitation, MM = Missing Value Source: NWS Daily Summary

Daily Weather History Graph

Daily Weather History Graph

Search for Another Location

Airport or City:

Trip Planner

Search our weather history database for the weather conditions in past years. The results will help you decide how hot, cold, wet, or windy it might be!

Date:

Astronomy

Jan. 13, 2013 Rise Set
Actual Time 7:46 AM MST 5:39 PM MST
Civil Twilight 7:18 AM MST 6:07 PM MST
Nautical Twilight 6:46 AM MST 6:39 PM MST
Astronomical Twilight 6:15 AM MST 7:10 PM MST
Moon 8:51 AM MST (1/13) 8:17 PM MST (1/13)
Length of Visible Light 10h 49m
Length of Day
9h 52m
Waxing Crescent, 5% of the Moon is Illuminated
Jan 13
Waxing Crescent
Jan 18
First Quarter
Jan 26
Full
Feb 3
Last Quarter
Feb 10
New

Hourly Weather History & Observations

Time (MST) Temp. Windchill Dew Point Humidity Pressure Visibility Wind Dir Wind Speed Gust Speed Precip Events Conditions
12:15 AM 19.4 °F 10.4 °F 6.8 °F 58% 30.13 in 10.0 mi SSE 6.9 mph - N/A   Clear
12:35 AM 19.4 °F 11.5 °F 5.0 °F 54% 30.13 in 10.0 mi SSE 5.8 mph - N/A   Clear
12:55 AM 19.4 °F 11.5 °F 5.0 °F 54% 30.14 in 10.0 mi ESE 5.8 mph - N/A   Clear
1:15 AM 21.2 °F - 6.8 °F 54% 30.14 in 10.0 mi Calm Calm - N/A   Clear
1:55 AM 19.4 °F 14.3 °F 3.2 °F 49% 30.15 in 10.0 mi SE 3.5 mph - N/A   Clear
2:15 AM 19.4 °F 14.3 °F 6.8 °F 58% 30.15 in 10.0 mi SE 3.5 mph - N/A   Clear
2:35 AM 19.4 °F 14.3 °F 5.0 °F 54% 30.15 in 10.0 mi South 3.5 mph - N/A   Clear
2:55 AM 17.6 °F - 3.2 °F 53% 30.16 in 10.0 mi Calm Calm - N/A   Clear
3:15 AM 19.4 °F 14.3 °F 5.0 °F 54% 30.16 in 10.0 mi South 3.5 mph - N/A   Clear
3:35 AM 19.4 °F - 5.0 °F 54% 30.16 in 10.0 mi Calm Calm - N/A   Clear
3:55 AM 19.4 °F - 3.2 °F 49% 30.16 in 10.0 mi Calm Calm - N/A   Clear
4:15 AM 19.4 °F - 5.0 °F 54% 30.15 in 10.0 mi Calm Calm - N/A   Clear
4:35 AM 17.6 °F 12.3 °F 3.2 °F 53% 30.15 in 10.0 mi South 3.5 mph - N/A   Clear
4:55 AM 17.6 °F 12.3 °F 5.0 °F 58% 30.15 in 10.0 mi South 3.5 mph - N/A   Clear
5:15 AM 17.6 °F 12.3 °F 3.2 °F 53% 30.14 in 10.0 mi South 3.5 mph - N/A   Clear
5:35 AM 17.6 °F 12.3 °F 3.2 °F 53% 30.14 in 10.0 mi South 3.5 mph - N/A   Clear
5:55 AM 17.6 °F 12.3 °F 3.2 °F 53% 30.14 in 10.0 mi South 3.5 mph - N/A   Clear
6:15 AM 17.6 °F - 3.2 °F 53% 30.15 in 10.0 mi Calm Calm - N/A   Clear
6:35 AM 17.6 °F - 3.2 °F 53% 30.15 in 10.0 mi Calm Calm - N/A   Clear
7:15 AM 15.8 °F - 3.2 °F 58% 30.16 in 10.0 mi Calm Calm - N/A   Clear
7:35 AM 15.8 °F - 3.2 °F 58% 30.17 in 10.0 mi Calm Calm - N/A   Clear
7:55 AM 15.8 °F 10.2 °F 3.2 °F 58% 30.17 in 10.0 mi SSE 3.5 mph - N/A   Clear
8:15 AM 15.8 °F 7.2 °F 3.2 °F 58% 30.17 in 10.0 mi SW 5.8 mph - N/A   Clear
8:35 AM 15.8 °F 10.2 °F 3.2 °F 58% 30.18 in 10.0 mi SSW 3.5 mph - N/A   Clear
8:55 AM 17.6 °F 10.7 °F 6.8 °F 63% 30.18 in 10.0 mi South 4.6 mph - N/A   Clear
9:15 AM 19.4 °F 11.5 °F 6.8 °F 58% 30.18 in 10.0 mi SE 5.8 mph - N/A   Clear
9:35 AM 21.2 °F 14.9 °F 5.0 °F 50% 30.18 in 10.0 mi SE 4.6 mph - N/A   Clear
9:55 AM 23.0 °F - 3.2 °F 43% 30.18 in 10.0 mi Calm Calm - N/A   Clear
10:15 AM 24.8 °F - 3.2 °F 40% 30.19 in 10.0 mi Calm Calm - N/A   Clear
10:35 AM 24.8 °F - 3.2 °F 40% 30.18 in 10.0 mi Calm Calm - N/A   Clear
10:55 AM 24.8 °F - 3.2 °F 40% 30.18 in 10.0 mi Calm Calm - N/A   Clear
11:15 AM 24.8 °F 20.5 °F 3.2 °F 40% 30.18 in 10.0 mi WNW 3.5 mph - N/A   Clear
11:35 AM 24.8 °F 19.1 °F 5.0 °F 43% 30.17 in 10.0 mi NW 4.6 mph - N/A   Clear
11:55 AM 24.8 °F 20.5 °F 5.0 °F 43% 30.16 in 10.0 mi West 3.5 mph - N/A   Clear
12:15 PM 24.8 °F 19.1 °F 5.0 °F 43% 30.15 in 10.0 mi WSW 4.6 mph - N/A   Clear
12:35 PM 26.6 °F 22.6 °F 5.0 °F 40% 30.13 in 10.0 mi NW 3.5 mph - N/A   Clear
12:55 PM 26.6 °F - 3.2 °F 37% 30.13 in 10.0 mi Calm Calm - N/A   Clear
1:15 PM 26.6 °F 22.6 °F 5.0 °F 40% 30.12 in 10.0 mi South 3.5 mph - N/A   Clear
1:35 PM 28.4 °F 23.3 °F 3.2 °F 34% 30.11 in 10.0 mi South 4.6 mph - N/A   Clear
1:55 PM 28.4 °F 23.3 °F 3.2 °F 34% 30.11 in 10.0 mi South 4.6 mph - N/A   Clear
2:15 PM 30.2 °F - 1.4 °F 29% 30.10 in 10.0 mi Calm Calm - N/A   Clear
2:35 PM 30.2 °F 25.4 °F 1.4 °F 29% 30.10 in 10.0 mi NE 4.6 mph - N/A   Clear
2:55 PM 30.2 °F - 1.4 °F 29% 30.10 in 10.0 mi Calm Calm - N/A   Clear
3:15 PM 30.2 °F - 3.2 °F 32% 30.10 in 10.0 mi Calm Calm - N/A   Clear
3:35 PM 30.2 °F - 1.4 °F 29% 30.10 in 10.0 mi Calm Calm - N/A   Clear
3:55 PM 32.0 °F - 3.2 °F 30% 30.10 in 10.0 mi Calm Calm - N/A   Clear
4:15 PM 32.0 °F 28.7 °F 1.4 °F 27% 30.10 in 10.0 mi East 3.5 mph - N/A   Clear
4:35 PM 32.0 °F - 1.4 °F 27% 30.10 in 10.0 mi Calm Calm - N/A   Clear
4:55 PM 32.0 °F 24.2 °F 1.4 °F 27% 30.11 in 10.0 mi East 9.2 mph - N/A   Mostly Cloudy
5:15 PM 30.2 °F 17.8 °F -2.2 °F 25% 30.11 in 10.0 mi ENE 19.6 mph 25.3 mph N/A   Mostly Cloudy
5:35 PM 28.4 °F 17.5 °F -5.8 °F 23% 30.11 in 10.0 mi NE 13.8 mph 20.7 mph N/A   Partly Cloudy
5:55 PM 28.4 °F 18.5 °F -5.8 °F 23% 30.12 in 10.0 mi ENE 11.5 mph 17.3 mph N/A   Clear
6:15 PM 26.6 °F 14.3 °F -5.8 °F 24% 30.12 in 10.0 mi NE 16.1 mph 21.9 mph N/A   Partly Cloudy
6:35 PM 26.6 °F 13.8 °F -5.8 °F 24% 30.12 in 10.0 mi NE 17.3 mph - N/A   Partly Cloudy
6:55 PM 26.6 °F 15.7 °F -5.8 °F 24% 30.14 in 10.0 mi NNE 12.7 mph 21.9 mph N/A   Mostly Cloudy
7:15 PM 26.6 °F 14.3 °F -2.2 °F 29% 30.14 in 10.0 mi NE 16.1 mph 27.6 mph N/A   Overcast
7:35 PM 26.6 °F 14.7 °F -2.2 °F 29% 30.14 in 10.0 mi NE 15.0 mph 21.9 mph N/A   Mostly Cloudy
7:55 PM 24.8 °F 14.0 °F -2.2 °F 31% 30.15 in 10.0 mi NE 11.5 mph 19.6 mph N/A   Mostly Cloudy
8:15 PM 24.8 °F 12.4 °F -0.4 °F 34% 30.14 in 10.0 mi NE 15.0 mph 23.0 mph N/A   Overcast
8:35 PM 24.8 °F 11.1 °F -0.4 °F 34% 30.14 in 10.0 mi NE 18.4 mph 25.3 mph N/A   Overcast
8:55 PM 24.8 °F 12.9 °F -0.4 °F 34% 30.14 in 10.0 mi NE 13.8 mph - N/A   Mostly Cloudy
9:15 PM 23.0 °F 14.7 °F -0.4 °F 36% 30.15 in 10.0 mi WNW 6.9 mph - N/A   Mostly Cloudy
9:35 PM 21.2 °F 9.5 °F -0.4 °F 39% 30.16 in 10.0 mi SSW 11.5 mph - N/A   Mostly Cloudy
9:55 PM 21.2 °F 11.7 °F -0.4 °F 39% 30.17 in 10.0 mi NE 8.1 mph - N/A   Mostly Cloudy
10:35 PM 21.2 °F 7.3 °F -0.4 °F 39% 30.17 in 10.0 mi NE 16.1 mph 20.7 mph N/A   Mostly Cloudy
10:55 PM 21.2 °F 7.3 °F -0.4 °F 39% 30.17 in 10.0 mi NE 16.1 mph 23.0 mph N/A   Overcast
11:15 PM 21.2 °F 8.9 °F -0.4 °F 39% 30.18 in 10.0 mi NNE 12.7 mph 18.4 mph N/A   Overcast
11:35 PM 21.2 °F 10.9 °F -0.4 °F 39% 30.19 in 10.0 mi NNE 9.2 mph 16.1 mph N/A   Overcast
11:55 PM 21.2 °F 6.4 °F -0.4 °F 39% 30.19 in 10.0 mi NE 18.4 mph - N/A   Overcast